Latest Coastal Weather Observations for Friendly Beaches

IDT60701

Issued at 6:25 am EST Thursday 21 August 2014 (issued every 10 minutes, with the page automatically refreshed every 10 minutes)

About coastal observations | Map of coastal stations | Coastal observations for TAS | Marine services | Other Formats
Station Details ID: 092114 Name: FRIENDLY BEACHES Lat: -42.00 Lon: 148.28 Height: 55.0 m
Data from the previous 72 hours. | See also: Recent months at Friendly Beaches
Date/Time
EST
Temp

°C
Wind Pressure Rain
since 9am
mm
Weather Cloud Vis
km
Sea
Height
m
Swell
Dir
 
Speed
knots
Gust
knots
hPa Trend Height
m
Period
s
Dir
21/06:00am 6.8 WNW 6 8 1031.4 - 0.0 - - - - - - -
21/05:30am 6.8 WNW 6 7 1031.3 - 0.0 - - - - - - -
21/05:00am 6.8 WNW 5 6 1031.2 - 0.0 - - - - - - -
21/04:30am 6.6 WNW 6 7 1030.8 - 0.0 - - - - - - -
21/04:00am 6.3 WNW 6 7 1030.7 - 0.0 - - - - - - -
21/03:30am 6.2 WNW 6 7 1030.4 - 0.0 - - - - - - -
21/03:00am 6.1 WNW 6 8 1030.4 - 0.0 - - - - - - -
21/02:30am 5.6 WNW 7 8 1030.4 - 0.0 - - - - - - -
21/02:00am 5.0 WNW 7 8 1030.6 - 0.0 - - - - - - -
21/01:30am 5.4 WNW 6 7 1030.4 - 0.0 - - - - - - -
21/01:00am 6.1 WNW 6 7 1030.5 - 0.0 - - - - - - -
21/12:30am 5.6 WNW 6 7 1030.5 - 0.0 - - - - - - -
21/12:00am 4.7 W 7 7 1030.5 - 0.0 - - - - - - -
 
Date/Time
EST
Temp

°C
Wind Pressure Rain
since 9am
mm
Weather Cloud Vis
km
Sea
Height
m
Swell
Dir
 
Speed
knots
Gust
knots
hPa Trend Height
m
Period
s
Dir
20/11:30pm 5.3 WNW 6 7 1030.2 - 0.0 - - - - - - -
20/11:00pm 5.0 WNW 7 7 1030.2 - 0.0 - - - - - - -
20/10:30pm 5.3 WNW 6 7 1030.0 - 0.0 - - - - - - -
20/10:00pm 5.5 WNW 6 6 1030.1 - 0.0 - - - - - - -
20/09:30pm 5.5 W 6 6 1030.0 - 0.0 - - - - - - -
20/09:00pm 6.3 W 5 5 1029.9 - 0.0 - - - - - - -
20/08:30pm 7.1 WNW 4 5 1029.5 - 0.0 - - - - - - -
20/08:00pm 7.5 WNW 3 3 1029.2 - 0.0 - - - - - - -
20/07:30pm 7.5 WNW 3 3 1028.9 - 0.0 - - - - - - -
20/07:00pm 7.5 S 2 3 1028.8 - 0.0 - - - - - - -
20/06:30pm 8.0 S 4 5 1028.4 - 0.0 - - - - - - -
20/06:00pm 9.2 S 5 7 1028.0 - 0.0 - - - - - - -
20/05:30pm 9.9 SE 7 10 1027.6 - 0.0 - - - - - - -
20/05:00pm 10.8 SSE 8 12 1027.5 - 0.0 - - - - - - -
20/04:30pm 11.8 SE 8 10 1027.0 - 0.0 - - - - - - -
20/04:00pm 12.7 SE 8 11 1026.9 - 0.0 - - - - - - -
20/03:30pm 13.8 SE 8 11 1026.7 - 0.0 - - - - - - -
20/03:00pm 13.9 SE 7 10 1026.5 - 0.0 - - - - - - -
20/02:30pm 12.9 ESE 5 7 1026.3 - 0.0 - - - - - - -
20/02:00pm 13.1 SSE 6 10 1026.2 - 0.0 - - - - - - -
20/01:30pm 13.3 SSE 7 10 1026.0 - 0.0 - - - - - - -
20/01:00pm 14.2 SSE 6 11 1026.2 - 0.0 - - - - - - -
20/12:30pm 12.6 SSW 6 9 1026.2 - 0.0 - - - - - - -
20/12:00pm 12.2 S 7 10 1026.5 - 0.0 - - - - - - -
20/11:30am 13.0 SSW 6 10 1026.6 - 0.0 - - - - - - -
20/11:00am 12.5 SSW 4 7 1026.7 - 0.0 - - - - - - -
20/10:30am 11.9 W 3 5 1026.4 - 0.0 - - - - - - -
20/10:00am 10.8 WSW 3 6 1026.4 - 0.0 - - - - - - -
20/09:30am 9.9 W 4 6 1026.1 - 0.0 - - - - - - -
20/09:00am 7.8 WNW 5 7 1026.1 - 0.0 - - - - - - -
20/08:30am 6.6 W 6 8 1025.8 - 0.0 - - - - - - -
20/08:00am 5.8 W 7 8 1025.7 - 0.0 - - - - - - -
20/07:30am 5.2 W 7 9 1025.3 - 0.0 - - - - - - -
20/07:00am 4.9 WNW 6 8 1024.9 - 0.0 - - - - - - -
20/06:30am 4.9 WNW 6 7 1024.5 - 0.0 - - - - - - -
20/06:00am 4.9 WNW 6 8 1024.3 - 0.0 - - - - - - -
20/05:30am 5.0 WNW 6 8 1024.2 - 0.0 - - - - - - -
20/05:00am 4.9 W 7 8 1024.2 - 0.0 - - - - - - -
20/04:30am 5.3 W 6 7 1024.0 - 0.0 - - - - - - -
20/04:00am 5.5 W 5 6 1023.8 - 0.0 - - - - - - -
20/03:30am 6.1 W 5 7 1023.8 - 0.0 - - - - - - -
20/03:00am 6.4 W 5 7 1023.7 - 0.0 - - - - - - -
20/02:30am 7.0 W 6 9 1023.8 - 0.0 - - - - - - -
20/02:00am 7.7 W 8 12 1023.7 - 0.0 - - - - - - -
20/01:30am 7.6 W 6 10 1023.7 - 0.0 - - - - - - -
20/01:00am 7.8 W 6 9 1023.6 - 0.0 - - - - - - -
20/12:30am 7.8 WNW 5 8 1023.5 - 0.0 - - - - - - -
20/12:00am 7.8 WNW 5 7 1023.5 - 0.0 - - - - - - -
 
Date/Time
EST
Temp

°C
Wind Pressure Rain
since 9am
mm
Weather Cloud Vis
km
Sea
Height
m
Swell
Dir
 
Speed
knots
Gust
knots
hPa Trend Height
m
Period
s
Dir
19/11:30pm 8.0 W 5 8 1023.5 - 0.0 - - - - - - -
19/11:00pm 7.6 WNW 5 6 1023.4 - 0.0 - - - - - - -
19/10:30pm 7.3 WNW 5 6 1023.5 - 0.0 - - - - - - -
19/10:00pm 7.5 W 4 5 1023.4 - 0.0 - - - - - - -
19/09:30pm 7.9 W 4 5 1023.4 - 0.0 - - - - - - -
19/09:00pm 8.1 WNW 4 4 1023.3 - 0.0 - - - - - - -
19/08:30pm 9.5 NNW 3 5 1023.4 - 0.0 - - - - - - -
19/08:00pm 9.3 N 4 5 1023.1 - 0.0 - - - - - - -
19/07:30pm 8.5 N 4 5 1022.9 - 0.0 - - - - - - -
19/07:00pm 8.1 N 4 5 1022.6 - 0.0 - - - - - - -
19/06:30pm 8.6 N 4 5 1022.5 - 0.0 - - - - - - -
19/06:00pm 8.2 NNE 3 4 1022.4 - 0.0 - - - - - - -
19/05:30pm 9.3 NE 3 4 1022.1 - 0.0 - - - - - - -
19/05:00pm 10.3 NE 2 4 1022.0 - 0.0 - - - - - - -
19/04:30pm 11.8 ESE 3 5 1021.8 - 0.0 - - - - - - -
19/04:00pm 12.2 E 2 4 1021.8 - 0.0 - - - - - - -
19/03:30pm 13.1 E 3 5 1021.8 - 0.0 - - - - - - -
19/03:00pm 13.6 E 4 6 1021.8 - 0.0 - - - - - - -
19/02:30pm 14.0 ESE 5 7 1021.8 - 0.0 - - - - - - -
19/02:00pm 14.2 S 4 8 1021.7 - 0.0 - - - - - - -
19/01:30pm 13.9 SSW 3 6 1021.7 - 0.0 - - - - - - -
19/01:00pm 13.3 W 4 7 1022.1 - 0.0 - - - - - - -
19/12:30pm 12.8 W 4 8 1022.5 - 0.0 - - - - - - -
19/12:00pm 11.9 WSW 5 9 1023.0 - 0.0 - - - - - - -
19/11:30am 12.4 W 4 8 1023.4 - 0.0 - - - - - - -
19/11:00am 11.4 WSW 5 8 1024.0 - 0.0 - - - - - - -
19/10:30am 10.4 WSW 6 10 1024.0 - 0.0 - - - - - - -
19/10:00am 9.5 W 5 9 1024.2 - 0.0 - - - - - - -
19/09:30am 8.1 W 5 7 1024.1 - 0.0 - - - - - - -
19/09:00am 6.6 W 4 6 1024.4 - 0.0 - - - - - - -
19/08:30am 5.3 WNW 5 6 1024.2 - 0.0 - - - - - - -
19/08:00am 3.2 WNW 6 7 1024.2 - 0.0 - - - - - - -
19/07:30am 4.3 WNW 5 5 1023.9 - 0.0 - - - - - - -
19/07:00am 4.1 WNW 6 7 1023.6 - 0.0 - - - - - - -
19/06:30am 3.7 WNW 6 7 1023.4 - 0.0 - - - - - - -
19/06:00am 3.2 W 6 8 1023.3 - 0.0 - - - - - - -
19/05:30am 3.0 W 6 8 1023.2 - 0.0 - - - - - - -
19/05:00am 3.3 W 6 8 1023.1 - 0.0 - - - - - - -
19/04:30am 3.2 W 6 7 1023.1 - 0.0 - - - - - - -
19/04:00am 3.5 WNW 6 7 1023.0 - 0.0 - - - - - - -
19/03:30am 3.8 WNW 6 8 1023.0 - 0.0 - - - - - - -
19/03:00am 4.0 WNW 6 7 1023.2 - 0.0 - - - - - - -
19/02:30am 4.2 WNW 6 8 1023.3 - 0.0 - - - - - - -
19/02:00am 4.0 WNW 7 8 1023.5 - 0.0 - - - - - - -
19/01:30am 3.9 WNW 7 8 1023.6 - 0.0 - - - - - - -
19/01:00am 4.2 W 7 8 1023.7 - 0.0 - - - - - - -
19/12:30am 4.6 WNW 6 7 1023.6 - 0.0 - - - - - - -
19/12:00am 5.1 WNW 6 7 1023.6 - 0.0 - - - - - - -
 
Date/Time
EST
Temp

°C
Wind Pressure Rain
since 9am
mm
Weather Cloud Vis
km
Sea
Height
m
Swell
Dir
 
Speed
knots
Gust
knots
hPa Trend Height
m
Period
s
Dir
18/11:30pm 5.8 WNW 6 8 1023.8 - 0.0 - - - - - - -
18/11:00pm 6.1 WNW 5 7 1024.0 - 0.0 - - - - - - -
18/10:30pm 6.4 W 6 7 1023.9 - 0.0 - - - - - - -
18/10:00pm 6.3 W 5 7 1024.2 - 0.0 - - - - - - -
18/09:30pm 6.4 W 5 7 1024.0 - 0.0 - - - - - - -
18/09:00pm 6.0 WNW 6 7 1024.1 - 0.0 - - - - - - -
18/08:30pm 6.0 WNW 6 7 1023.9 - 0.0 - - - - - - -
18/08:00pm 6.4 WNW 5 5 1023.8 - 0.0 - - - - - - -
18/07:30pm 7.0 WNW 4 4 1023.8 - 0.0 - - - - - - -
18/07:00pm 6.9 WNW 3 4 1023.6 - 0.0 - - - - - - -
18/06:30pm 6.8 SSW 3 4 1023.5 - 0.0 - - - - - - -
18/06:00pm 7.7 SSW 4 5 1023.3 - 0.0 - - - - - - -
18/05:30pm 8.0 SSW 3 5 1023.0 - 0.0 - - - - - - -
18/05:00pm 10.0 SE 6 7 1022.9 - 0.0 - - - - - - -
18/04:30pm 11.5 SE 7 9 1022.8 - 0.0 - - - - - - -
18/04:00pm 10.9 SE 7 10 1022.7 - 0.0 - - - - - - -
18/03:30pm 10.3 SE 6 10 1022.5 - 0.0 - - - - - - -
18/03:00pm 11.8 SE 6 8 1022.4 - 0.0 - - - - - - -
18/02:30pm 11.9 SE 6 8 1022.4 - 0.0 - - - - - - -
18/02:00pm 12.1 SSE 3 7 1022.4 - 0.0 - - - - - - -
18/01:30pm 12.1 SSE 5 9 1022.5 - 0.0 - - - - - - -
18/01:00pm 11.9 SSW 6 10 1022.8 - 0.0 - - - - - - -
18/12:30pm 12.2 S 4 6 1023.0 - 0.0 - - - - - - -
18/12:00pm 11.5 SSW 5 9 1023.3 - 0.0 - - - - - - -
18/11:30am 10.8 SSW 5 7 1023.7 - 0.0 - - - - - - -
18/11:00am 10.2 SSW 5 8 1024.0 - 0.0 - - - - - - -
18/10:30am 9.7 SSW 7 11 1023.9 - 0.0 - - - - - - -
18/10:00am 9.6 SSW 8 13 1024.0 - 0.0 - - - - - - -
18/09:30am 9.5 SSW 7 11 1023.8 - 0.0 - - - - - - -
18/09:00am 9.2 SSW 7 12 1023.7 - 0.0 - - - - - - -
18/08:30am 8.9 SSW 7 11 1023.8 - 0.0 - - - - - - -
18/08:00am 8.7 SSW 8 13 1023.7 - 0.0 - - - - - - -
18/07:30am 8.5 SW 7 13 1023.5 - 0.0 - - - - - - -
18/07:00am 8.5 SSW 8 12 1023.3 - 0.0 - - - - - - -
18/06:30am 8.6 SSW 9 16 1023.0 - 0.0 - - - - - - -

Other Formats:

Comma delimited format used in spreadsheet applications
http://www.bom.gov.au/fwo/IDT60701/IDT60701.94987.axf

JavaScript Object Notation format (JSON) in row-major order
http://www.bom.gov.au/fwo/IDT60701/IDT60701.94987.json